Weather Roundup
Issued by NWS

Home | Current Version | Previous Version | Text Only | Print | Product List | Glossary On
Versions: 1 2 3 4 5 6 7 8 9 10 11 12 13 14 15 16 17 18 19 20 21 22 23 24 25 26 27 28 29 30 31 32 33 34 35 36 37 38 39 40 41 42 43 44 45 46 47 48 49 50
899
NZUS93 KARX 062310
HRRWXR

CURRENT HOURLY OBSERVATIONS ACROSS
MUCH OF THE UPPER MISSISSIPPI VALLEY
NATIONAL WEATHER SERVICE LA CROSSE WI
500 PM CST SAT FEB 06 2016


...SOUTHEAST MINNESOTA...


CITY           SKY/WX    TMP DP  RH WIND       PRES   REMARKS
ROCHESTER      CLOUDY    28  24  85 S18       29.98F FOG     WCI  15
ROCHESTER/MAYO CLOUDY    29  27  92 S13G22    29.98F WCI  19
WINONA         CLEAR     32  27  80 S3        30.04F
AUSTIN         MOCLDY    28  27  93 S16       29.98F FOG     WCI  17
ALBERT LEA     CLOUDY    30  28  93 S14       29.96F WCI  20
DODGE CENTER   CLOUDY    28  27  93 S15       29.95F WCI  17
PRESTON        CLOUDY    27  24  87 S17       30.01F WCI  14
OWATONNA       PTCLDY    34  27  75 S17       29.94F WCI  23
FARIBAULT      CLOUDY    34  28  80 S14       29.93F WCI  24
$$

...ELSEWHERE IN MINNESOTA...


CITY           SKY/WX    TMP DP  RH WIND       PRES   REMARKS
MINNEAPOLIS    CLOUDY    35  26  69 S13       29.90F WCI  26
INTNL FALLS    SNOW      31  27  85 SE8       29.66F VSB 1/2 WCI  23
DULUTH         CLOUDY    33  24  69 S15       29.76F WCI  23
RED WING       CLOUDY    34  27  75 S9        29.96F WCI  26
REDWOOD FALLS  CLOUDY    35  27  72 SW16G24   29.83F WCI  25
MANKATO        CLOUDY    34  27  75 S16       29.91F WCI  23
WORTHINGTON    CLOUDY    34  25  69 S21G28    29.87F WCI  22
FAIRMONT       MOCLDY    34  27  75 S18       29.90F WCI  23
$$

...SOUTHWEST WISCONSIN...


CITY           SKY/WX    TMP DP  RH WIND       PRES   REMARKS
LA CROSSE      PTCLDY    32  24  72 S10       30.05F WCI  24
PRAIRIE DU CHI CLOUDY    32  26  77 S6        30.11F WCI  26
BOSCOBEL       CLEAR     32  27  81 SW8       30.11F WCI  25
LONE ROCK      CLEAR     32  24  72 SW9       30.10F WCI  24
PLATTEVILLE    CLOUDY    31  28  90 SW10      30.11F WCI  22
FORT MC COY    CLEAR     33  25  72 S6        30.05F WCI  27
CAMP DOUGLAS   CLEAR     34  27  74 S5        30.04F WCI  30
VIROQUA        FAIR      30  25  80 S9        30.04F WCI  22
WIS DELLS      PTCLDY    32  24  71 SW8       30.07F WCI  25
$$

...ELSEWHERE IN WISCONSIN...


CITY           SKY/WX    TMP DP  RH WIND       PRES   REMARKS
MILWAUKEE      CLOUDY    35  26  69 W12       30.12S WCI  27
MADISON        PTCLDY    31  25  78 SW5       30.10F WCI  26
GREEN BAY      CLOUDY    30  24  78 SW8       30.06F WCI  22
EAU CLAIRE     CLOUDY    33  23  66 S15       29.96F WCI  23
BLACK RVR FLS  FAIR      34  23  64 SW5       30.02F WCI  30
MEDFORD        CLOUDY    30  22  73 S9        29.95F WCI  22
WAUSAU         CLOUDY    33  22  63 S7        29.97F WCI  27
WIS RAPIDS     CLOUDY    32  22  66 SW10      30.04S WCI  24
MARSHFIELD     PTCLDY    33  20  58 SW10      29.98F WCI  25
RICE LAKE      CLOUDY    33  25  72 S12G17    29.92F WCI  24
$$

...NORTHEAST IOWA...


CITY           SKY/WX    TMP DP  RH WIND       PRES   REMARKS
WATERLOO       CLOUDY    30  26  85 S12       30.09F WCI  20
DUBUQUE        CLOUDY    31  27  85 SW6       30.12F WCI  25
DECORAH        CLOUDY    28  28 100 S7        30.05F WCI  21
MASON CITY     CLOUDY    28  26  92 S14       30.02F WCI  17
CHARLES CITY   CLOUDY    28  28 100 S16       30.05F FOG     WCI  17
OELWEIN        CLOUDY    30  30 100 SW14      30.09F WCI  20
$$

...ELSEWHERE IN IOWA...


CITY           SKY/WX    TMP DP  RH WIND       PRES   REMARKS
DES MOINES     PTCLDY    37  29  72 S10       30.10F WCI  30
IOWA CITY      CLEAR     39  31  72 SW5       30.15S
FORT DODGE     CLOUDY    34  27  75 S17G24    30.02F WCI  23
MARSHALLTOWN   CLEAR     31  27  85 S9        30.08F WCI  23
CEDAR RAPIDS   CLEAR     34  32  92 W6        30.12F WCI  29
$$

...NORTHERN ILLINOIS...


CITY           SKY/WX    TMP DP  RH WIND       PRES   REMARKS
CHICAGO-OHARE  PTCLDY    39  28  64 SW8       30.14S WCI  33
CHICAGO-MIDWAY PTCLDY    41  27  57 SW9       30.15F
MOLINE         CLEAR     39  29  67 W7        30.14F WCI  34
ROCKFORD       PTCLDY    37  27  67 NW7       30.15S WCI  32
PEORIA         CLEAR     43  25  49 SW8       30.16F
$$

NOTE: "FAIR" INDICATES FEW OR NO CLOUDS BELOW 12,000 FEET WITH NO
SIGNIFICANT WEATHER AND/OR OBSTRUCTIONS TO VISIBILITY. WIND
SPEEDS ARE IN MILES-PER-HOUR.




USA.gov is the U.S. government's official web portal to all federal, state and local government web resources and services.